カタログに戻る

FLOCK 4Q 36

運用中科学PO
NORAD 58274·PAYLOAD·🇺🇸 United States

打ち上げ Nov 11, 2023 から Vandenberg Space Force Base

Loading…

次のパス (今後24時間)

TLE

最新Source: Space-Track

元期: Sep 14, 2026, 05:09 UTC

1 58274U 23174U   26257.21483124  .00322684  00000-0  14195-2 0  9997
2 58274  97.3762 354.2550 0005832 223.5742 136.5068 15.83710929159783

AllMySatでFLOCK 4Q 36をリアルタイム追跡

Download on the App Store